Погода в Веприке

Украина / Полтавская область     50°22′27″N   34°11′01″E
темп.,
°C
ветер,
м/с
пор.,
м/с
влажн.,
%
обл.,
%
осадки,
мм/ч
давл.,
гПа
погр.,
м
19 апреля, пн
пн1900:00+5с239554 0.0 101795
03:00+5ссв359496 0.0 1017232
06:00+5св2494100 0.0 1016149
09:00+7ссв3484100 0.0 1016332
12:00+10св3364100 0.0 10151061
15:00+11св3361100 0.1 1015965
18:00+11ссв345950 0.0 10141122
21:00+7св237893 0.1 101529
20 апреля, вт
вт2000:00+6св348348 0.0 101354
03:00+5св338650 0.0 101238
06:00+5ссв3494100 0.0 101079
09:00+9всв4579100 0.0 1009352
12:00+13всв4661100 0.5 10061260
15:00+12св6768100 1.1 10041141
18:00+10ссв5986100 1.3 1003729
21:00+8ссз4889100 1.4 1004429
21 апреля, ср
ср2100:00+8сз4790100 0.1 1005449
03:00+5зсз3896100 0.1 1007251
06:00+6з2591100 0.0 1009209
09:00+8зюз368686 0.3 1011407
12:00+12з685454 0.4 10121731
15:00+12з685773 0.7 10131366
18:00+12з58575 0.1 10141483
21:00+8ю226771 0.1 101618
22 апреля, чт
чт2200:00+7ююз347925 0.0 101644
03:00+6ю36766 0.0 1017101
06:00+7ююз388557 0.0 1017191
09:00+10ю487995 0.1 1018358
12:00+14ююз455730 0.1 10181432
15:00+15ю4453100 0.5 10171461
18:00+13ююв3665100 0.0 1018217
21:00+11ююв3671100 0.1 1019117
23 апреля, пт
пт2300:00+11ю377192 0.0 1018143
03:00+10ю387491 0.0 1018168
06:00+10ю397598 0.0 1018215
09:00+13ю69625 0.0 1017537
12:00+17ююз810516 0.1 10161825
15:00+16ю71152100 0.4 10141178
18:00+15ююз71162100 1.3 1014827
21:00+9зсз2593100 4.0 1016331